,,Stat6,,Stat2,,Stat8,,Stat9,,Stat10,,Wind1,,Wind1,
time,status,PA1M_AVG,status,PR1M_SUM,status,RH1M_AVG,status,SR1M_AVG,status,TA1M_AVG,status,W1dAve1m,status,W1sAve1m,
2008-10-06, 00:00:00,VALID,918.02,VALID,0,VALID,100,VALID,0,VALID,19.5531,VALID,143,VALID,0,
2008-10-06, 00:01:00,VALID,918.002,VALID,0,VALID,100,VALID,0.0169808,VALID,19.5628,VALID,150,VALID,0,
2008-10-06, 00:02:00,VALID,917.999,VALID,0,VALID,100,VALID,-0.0169808,VALID,19.5593,VALID,145,VALID,0,
2008-10-06, 00:03:00,VALID,918.01,VALID,0,VALID,100,VALID,0,VALID,19.5788,VALID,145,VALID,0,
2008-10-06, 00:04:00,VALID,918.02,VALID,0,VALID,100,VALID,0,VALID,19.608,VALID,111,VALID,0,
2008-10-06, 00:05:00,VALID,918.032,VALID,0,VALID,100,VALID,0,VALID,19.5952,VALID,2,VALID,0.123242,
2008-10-06, 00:06:00,VALID,918.054,VALID,0,VALID,100,VALID,0,VALID,19.5403,VALID,13,VALID,0.886991,
2008-10-06, 00:07:00,VALID,918.069,VALID,0,VALID,100,VALID,0,VALID,19.4912,VALID,346,VALID,0,
2008-10-06, 00:08:00,VALID,918.082,VALID,0,VALID,100,VALID,0,VALID,19.4689,VALID,264,VALID,0.270647,
2008-10-06, 00:09:00,VALID,918.111,VALID,0,VALID,100,VALID,0,VALID,19.433,VALID,253,VALID,0.5538,
2008-10-06, 00:10:00,VALID,918.134,VALID,0,VALID,100,VALID,0,VALID,19.4103,VALID,253,VALID,0.0410156,
2008-10-06, 00:11:00,VALID,918.16,VALID,0,VALID,100,VALID,-0.0339617,VALID,19.4043,VALID,248,VALID,0,
2008-10-06, 00:12:00,VALID,918.18,VALID,0,VALID,100,VALID,0,VALID,19.3941,VALID,248,VALID,0,
2008-10-06, 00:13:00,VALID,918.21,VALID,0,VALID,100,VALID,-0.0679233,VALID,19.4041,VALID,304,VALID,0.295785,
2008-10-06, 00:14:00,VALID,918.223,VALID,0,VALID,100,VALID,-0.0679233,VALID,19.3941,VALID,27,VALID,0.301562,
2008-10-06, 00:15:00,VALID,918.212,VALID,0,VALID,100,VALID,0,VALID,19.3586,VALID,24,VALID,0,
2008-10-06, 00:16:00,VALID,918.192,VALID,0,VALID,100,VALID,-0.0169808,VALID,19.3197,VALID,26,VALID,0,
2008-10-06, 00:17:00,VALID,918.178,VALID,0,VALID,100,VALID,0,VALID,19.31,VALID,29,VALID,0,
2008-10-06, 00:18:00,VALID,918.185,VALID,0,VALID,100,VALID,-0.0339617,VALID,19.3032,VALID,29,VALID,0,
2008-10-06, 00:19:00,VALID,918.194,VALID,0,VALID,100,VALID,-0.0169808,VALID,19.3002,VALID,29,VALID,0,
2008-10-06, 00:20:00,VALID,918.205,VALID,0,VALID,100,VALID,-0.0169808,VALID,19.2972,VALID,29,VALID,0,
2008-10-06, 00:21:00,VALID,918.219,VALID,0,VALID,100,VALID,-0.0679233,VALID,19.2903,VALID,31,VALID,0,
2008-10-06, 00:22:00,VALID,918.236,VALID,0,VALID,100,VALID,-0.0679233,VALID,19.294,VALID,31,VALID,0,
2008-10-06, 00:23:00,VALID,918.215,VALID,0,VALID,100,VALID,-0.0849042,VALID,19.2945,VALID,31,VALID,0,
2008-10-06, 00:24:00,VALID,918.209,VALID,0,VALID,100,VALID,-0.0509425,VALID,19.2972,VALID,31,VALID,0,
2008-10-06, 00:25:00,VALID,918.211,VALID,0,VALID,100,VALID,-0.0339617,VALID,19.3072,VALID,31,VALID,0,
2008-10-06, 00:26:00,VALID,918.19,VALID,0,VALID,100,VALID,-0.0509425,VALID,19.3097,VALID,31,VALID,0,
2008-10-06, 00:27:00,VALID,918.192,VALID,0,VALID,100,VALID,-0.0849042,VALID,19.3359,VALID,336,VALID,0.179688,
2008-10-06, 00:28:00,VALID,918.206,VALID,0,VALID,100,VALID,-0.0509425,VALID,19.3621,VALID,223,VALID,0.190407,
2008-10-06, 00:29:00,VALID,918.22,VALID,0,VALID,100,VALID,-0.0509425,VALID,19.3883,VALID,252,VALID,0.00237772,
2008-10-06, 00:30:00,VALID,918.237,VALID,0,VALID,100,VALID,-0.0169808,VALID,19.4138,VALID,259,VALID,0,
2008-10-06, 00:31:00,VALID,918.273,VALID,0,VALID,100,VALID,-0.0339617,VALID,19.4268,VALID,259,VALID,0,
2008-10-06, 00:32:00,VALID,918.273,VALID,0,VALID,100,VALID,-0.0509425,VALID,19.44,VALID,259,VALID,0,
2008-10-06, 00:33:00,VALID,918.281,VALID,0,VALID,100,VALID,-0.0339617,VALID,19.4402,VALID,259,VALID,0,
2008-10-06, 00:34:00,VALID,918.274,VALID,0,VALID,100,VALID,-0.0679233,VALID,19.43,VALID,259,VALID,0,
2008-10-06, 00:35:00,VALID,918.267,VALID,0,VALID,100,VALID,-0.0679233,VALID,19.4462,VALID,264,VALID,0,
2008-10-06, 00:36:00,VALID,918.235,VALID,0,VALID,100,VALID,-0.0849042,VALID,19.4435,VALID,278,VALID,0,
2008-10-06, 00:37:00,VALID,918.218,VALID,0,VALID,100,VALID,-0.0679233,VALID,19.424,VALID,334,VALID,0,
2008-10-06, 00:38:00,VALID,918.22,VALID,0,VALID,100,VALID,-0.118866,VALID,19.4113,VALID,31,VALID,0,
2008-10-06, 00:39:00,VALID,918.224,VALID,0,VALID,100,VALID,-0.0849042,VALID,19.3981,VALID,32,VALID,0,
2008-10-06, 00:40:00,VALID,918.226,VALID,0,VALID,100,VALID,-0.0679233,VALID,19.4076,VALID,31,VALID,0,
2008-10-06, 00:41:00,VALID,918.228,VALID,0,VALID,100,VALID,-0.101885,VALID,19.4178,VALID,38,VALID,0,
2008-10-06, 00:42:00,VALID,918.225,VALID,0,VALID,100,VALID,-0.0849042,VALID,19.3916,VALID,39,VALID,0,
2008-10-06, 00:43:00,VALID,918.217,VALID,0,VALID,100,VALID,-0.0849042,VALID,19.3878,VALID,39,VALID,0,
2008-10-06, 00:44:00,VALID,918.196,VALID,0,VALID,100,VALID,-0.0509425,VALID,19.3843,VALID,39,VALID,0,
2008-10-06, 00:45:00,VALID,918.172,VALID,0,VALID,100,VALID,-0.0169808,VALID,19.3943,VALID,39,VALID,0,
2008-10-06, 00:46:00,VALID,918.145,VALID,0,VALID,100,VALID,-0.0679233,VALID,19.3978,VALID,39,VALID,0,
2008-10-06, 00:47:00,VALID,918.125,VALID,0,VALID,100,VALID,-0.0679233,VALID,19.418,VALID,39,VALID,0,
2008-10-06, 00:48:00,VALID,918.088,VALID,0,VALID,100,VALID,-0.0509425,VALID,19.4103,VALID,39,VALID,0,
2008-10-06, 00:49:00,VALID,918.066,VALID,0,VALID,100,VALID,-0.0339617,VALID,19.43,VALID,39,VALID,0,
2008-10-06, 00:50:00,VALID,918.021,VALID,0,VALID,100,VALID,-0.0679233,VALID,19.4335,VALID,39,VALID,0,
2008-10-06, 00:51:00,VALID,917.976,VALID,0,VALID,100,VALID,-0.0849042,VALID,19.4203,VALID,39,VALID,0,
2008-10-06, 00:52:00,VALID,917.957,VALID,0,VALID,100,VALID,-0.0339617,VALID,19.4333,VALID,40,VALID,0,
2008-10-06, 00:53:00,VALID,917.933,VALID,0,VALID,100,VALID,-0.0509425,VALID,19.427,VALID,40,VALID,0,
2008-10-06, 00:54:00,VALID,917.912,VALID,0,VALID,100,VALID,-0.0849042,VALID,19.437,VALID,42,VALID,0,
2008-10-06, 00:55:00,VALID,917.906,VALID,0,VALID,100,VALID,-0.0679233,VALID,19.4532,VALID,43,VALID,0,
2008-10-06, 00:56:00,VALID,917.9,VALID,0,VALID,100,VALID,-0.0849042,VALID,19.4527,VALID,44,VALID,0,
2008-10-06, 00:57:00,VALID,917.898,VALID,0,VALID,100,VALID,-0.0509425,VALID,19.417,VALID,45,VALID,0,
2008-10-06, 00:58:00,VALID,917.9,VALID,0,VALID,100,VALID,-0.0849042,VALID,19.3911,VALID,45,VALID,0,
2008-10-06, 00:59:00,VALID,917.9,VALID,0,VALID,100,VALID,-0.0849042,VALID,19.3716,VALID,45,VALID,0,
2008-10-06, 01:00:00,VALID,917.905,VALID,0,VALID,100,VALID,-0.0509425,VALID,19.3584,VALID,48,VALID,0,
2008-10-06, 01:01:00,VALID,917.909,VALID,0,VALID,100,VALID,-0.0339617,VALID,19.3589,VALID,49,VALID,0,
2008-10-06, 01:02:00,VALID,917.91,VALID,0,VALID,100,VALID,-0.101885,VALID,19.3656,VALID,49,VALID,0,
2008-10-06, 01:03:00,VALID,917.911,VALID,0,VALID,100,VALID,-0.0679233,VALID,19.3651,VALID,49,VALID,0,
2008-10-06, 01:04:00,VALID,917.912,VALID,0,VALID,100,VALID,-0.0679233,VALID,19.3911,VALID,49,VALID,0,
2008-10-06, 01:05:00,VALID,917.891,VALID,0,VALID,100,VALID,-0.0849042,VALID,19.3913,VALID,31,VALID,0,
2008-10-06, 01:06:00,VALID,917.894,VALID,0,VALID,100,VALID,-0.0509425,VALID,19.3976,VALID,20,VALID,0,
2008-10-06, 01:07:00,VALID,917.892,VALID,0,VALID,100,VALID,-0.0339617,VALID,19.3941,VALID,20,VALID,0,
2008-10-06, 01:08:00,VALID,917.881,VALID,0,VALID,100,VALID,-0.0339617,VALID,19.4041,VALID,20,VALID,0,
2008-10-06, 01:09:00,VALID,917.869,VALID,0,VALID,100,VALID,-0.0339617,VALID,19.3973,VALID,20,VALID,0,
2008-10-06, 01:10:00,VALID,917.866,VALID,0,VALID,100,VALID,-0.0509425,VALID,19.4073,VALID,24,VALID,0,
2008-10-06, 01:11:00,VALID,917.863,VALID,0,VALID,100,VALID,-0.0509425,VALID,19.4041,VALID,28,VALID,0,
2008-10-06, 01:12:00,VALID,917.883,VALID,0,VALID,100,VALID,-0.101885,VALID,19.3946,VALID,29,VALID,0,
2008-10-06, 01:13:00,VALID,917.885,VALID,0,VALID,100,VALID,-0.101885,VALID,19.4008,VALID,20,VALID,0,
2008-10-06, 01:14:00,VALID,917.878,VALID,0,VALID,100,VALID,-0.0849042,VALID,19.411,VALID,32,VALID,0,
2008-10-06, 01:15:00,VALID,917.872,VALID,0,VALID,100,VALID,-0.0339617,VALID,19.4006,VALID,27,VALID,0,
2008-10-06, 01:16:00,VALID,917.853,VALID,0,VALID,100,VALID,-0.0679233,VALID,19.4073,VALID,24,VALID,0,
2008-10-06, 01:17:00,VALID,917.847,VALID,0,VALID,100,VALID,-0.0849042,VALID,19.4243,VALID,24,VALID,0,
2008-10-06, 01:18:00,VALID,917.837,VALID,0,VALID,100,VALID,-0.101885,VALID,19.437,VALID,24,VALID,0,
2008-10-06, 01:19:00,VALID,917.822,VALID,0,VALID,100,VALID,-0.0679233,VALID,19.4497,VALID,24,VALID,0,
2008-10-06, 01:20:00,VALID,917.798,VALID,0,VALID,100,VALID,-0.0679233,VALID,19.453,VALID,24,VALID,0,
2008-10-06, 01:21:00,VALID,917.788,VALID,0,VALID,100,VALID,-0.0169808,VALID,19.4625,VALID,10,VALID,0,
2008-10-06, 01:22:00,VALID,917.762,VALID,0,VALID,100,VALID,-0.0509425,VALID,19.4592,VALID,8,VALID,0,
2008-10-06, 01:23:00,VALID,917.737,VALID,0,VALID,100,VALID,-0.0339617,VALID,19.4427,VALID,8,VALID,0,
2008-10-06, 01:24:00,VALID,917.709,VALID,0,VALID,100,VALID,-0.0679233,VALID,19.443,VALID,8,VALID,0,
2008-10-06, 01:25:00,VALID,917.684,VALID,0,VALID,100,VALID,-0.0509425,VALID,19.44,VALID,8,VALID,0,
2008-10-06, 01:26:00,VALID,917.676,VALID,0,VALID,100,VALID,-0.0679233,VALID,19.4465,VALID,8,VALID,0,
2008-10-06, 01:27:00,VALID,917.649,VALID,0,VALID,100,VALID,0,VALID,19.459,VALID,8,VALID,0,
2008-10-06, 01:28:00,VALID,917.62,VALID,0,VALID,100,VALID,-0.0509425,VALID,19.4754,VALID,8,VALID,0,
2008-10-06, 01:29:00,VALID,917.599,VALID,0,VALID,100,VALID,-0.0339617,VALID,19.4852,VALID,8,VALID,0,
2008-10-06, 01:30:00,VALID,917.583,VALID,0,VALID,100,VALID,0,VALID,19.4814,VALID,8,VALID,0,
2008-10-06, 01:31:00,VALID,917.568,VALID,0,VALID,100,VALID,-0.0339617,VALID,19.4852,VALID,8,VALID,0,
2008-10-06, 01:32:00,VALID,917.562,VALID,0,VALID,100,VALID,-0.0509425,VALID,19.4817,VALID,8,VALID,0,
2008-10-06, 01:33:00,VALID,917.551,VALID,0,VALID,100,VALID,-0.0679233,VALID,19.5046,VALID,8,VALID,0,
2008-10-06, 01:34:00,VALID,917.541,VALID,0,VALID,100,VALID,-0.0679233,VALID,19.5303,VALID,8,VALID,0,
2008-10-06, 01:35:00,VALID,917.533,VALID,0,VALID,100,VALID,0,VALID,19.5501,VALID,8,VALID,0,
2008-10-06, 01:36:00,VALID,917.519,VALID,0,VALID,100,VALID,-0.0169808,VALID,19.5565,VALID,8,VALID,0,
2008-10-06, 01:37:00,VALID,917.498,VALID,0,VALID,100,VALID,-0.0509425,VALID,19.5466,VALID,8,VALID,0,
2008-10-06, 01:38:00,VALID,917.463,VALID,0,VALID,100,VALID,-0.0339617,VALID,19.5563,VALID,8,VALID,0,
2008-10-06, 01:39:00,VALID,917.457,VALID,0,VALID,100,VALID,-0.0509425,VALID,19.563,VALID,8,VALID,0,
2008-10-06, 01:40:00,VALID,917.432,VALID,0,VALID,100,VALID,-0.0509425,VALID,19.5565,VALID,8,VALID,0,
2008-10-06, 01:41:00,VALID,917.427,VALID,0,VALID,100,VALID,-0.0679233,VALID,19.5598,VALID,8,VALID,0,
2008-10-06, 01:42:00,VALID,917.399,VALID,0,VALID,100,VALID,-0.0169808,VALID,19.5628,VALID,8,VALID,0,
2008-10-06, 01:43:00,VALID,917.386,VALID,0,VALID,100,VALID,0,VALID,19.5433,VALID,8,VALID,0,
2008-10-06, 01:44:00,VALID,917.368,VALID,0,VALID,100,VALID,0,VALID,19.5433,VALID,8,VALID,0,
2008-10-06, 01:45:00,VALID,917.37,VALID,0,VALID,100,VALID,-0.0169808,VALID,19.5598,VALID,8,VALID,0,
2008-10-06, 01:46:00,VALID,917.373,VALID,0,VALID,100,VALID,-0.0509425,VALID,19.5695,VALID,8,VALID,0,
2008-10-06, 01:47:00,VALID,917.368,VALID,0,VALID,100,VALID,-0.0509425,VALID,19.5563,VALID,8,VALID,0,
2008-10-06, 01:48:00,VALID,917.364,VALID,0,VALID,100,VALID,0,VALID,19.5463,VALID,8,VALID,0,
2008-10-06, 01:49:00,VALID,917.365,VALID,0,VALID,100,VALID,-0.0169808,VALID,19.5331,VALID,8,VALID,0,
2008-10-06, 01:50:00,VALID,917.35,VALID,0,VALID,100,VALID,-0.0169808,VALID,19.5565,VALID,5,VALID,0,
2008-10-06, 01:51:00,VALID,917.342,VALID,0,VALID,100,VALID,-0.0169808,VALID,19.5296,VALID,5,VALID,0,
2008-10-06, 01:52:00,VALID,917.336,VALID,0,VALID,100,VALID,-0.0169808,VALID,19.5431,VALID,5,VALID,0,
2008-10-06, 01:53:00,VALID,917.329,VALID,0,VALID,100,VALID,-0.0169808,VALID,19.5628,VALID,5,VALID,0,
2008-10-06, 01:54:00,VALID,917.319,VALID,0,VALID,100,VALID,0,VALID,19.566,VALID,5,VALID,0,
2008-10-06, 01:55:00,VALID,917.306,VALID,0,VALID,100,VALID,-0.0339617,VALID,19.5433,VALID,18,VALID,0,
2008-10-06, 01:56:00,VALID,917.28,VALID,0,VALID,100,VALID,-0.0339617,VALID,19.5241,VALID,19,VALID,0,
2008-10-06, 01:57:00,VALID,917.257,VALID,0,VALID,100,VALID,0,VALID,19.5071,VALID,22,VALID,0,
2008-10-06, 01:58:00,VALID,917.24,VALID,0,VALID,100,VALID,-0.0169808,VALID,19.5041,VALID,23,VALID,0,
2008-10-06, 01:59:00,VALID,917.206,VALID,0,VALID,100,VALID,-0.0339617,VALID,19.4914,VALID,23,VALID,0,
2008-10-06, 02:00:00,VALID,917.18,VALID,0,VALID,100,VALID,-0.0169808,VALID,19.4882,VALID,23,VALID,0,
2008-10-06, 02:01:00,VALID,917.161,VALID,0,VALID,100,VALID,-0.0339617,VALID,19.4949,VALID,23,VALID,0,
2008-10-06, 02:02:00,VALID,917.14,VALID,0,VALID,100,VALID,-0.0339617,VALID,19.5046,VALID,23,VALID,0,
2008-10-06, 02:03:00,VALID,917.126,VALID,0,VALID,100,VALID,-0.0169808,VALID,19.4977,VALID,23,VALID,0,
2008-10-06, 02:04:00,VALID,917.125,VALID,0,VALID,100,VALID,-0.0509425,VALID,19.5111,VALID,23,VALID,0,
2008-10-06, 02:05:00,VALID,917.13,VALID,0,VALID,100,VALID,-0.0169808,VALID,19.5273,VALID,23,VALID,0,
2008-10-06, 02:06:00,VALID,917.132,VALID,0,VALID,100,VALID,-0.0339617,VALID,19.5303,VALID,23,VALID,0,
2008-10-06, 02:07:00,VALID,917.153,VALID,0,VALID,100,VALID,-0.0339617,VALID,19.563,VALID,23,VALID,0,
2008-10-06, 02:08:00,VALID,917.154,VALID,0,VALID,100,VALID,-0.0339617,VALID,19.5628,VALID,23,VALID,0,
2008-10-06, 02:09:00,VALID,917.154,VALID,0,VALID,100,VALID,-0.0509425,VALID,19.5625,VALID,23,VALID,0,
2008-10-06, 02:10:00,VALID,917.141,VALID,0,VALID,100,VALID,-0.0339617,VALID,19.579,VALID,23,VALID,0,
2008-10-06, 02:11:00,VALID,917.141,VALID,0,VALID,100,VALID,-0.0339617,VALID,19.6022,VALID,23,VALID,0,
2008-10-06, 02:12:00,VALID,917.112,VALID,0,VALID,100,VALID,-0.0679233,VALID,19.576,VALID,23,VALID,0,
2008-10-06, 02:13:00,VALID,917.091,VALID,0,VALID,100,VALID,-0.0339617,VALID,19.573,VALID,23,VALID,0,
2008-10-06, 02:14:00,VALID,917.07,VALID,0,VALID,100,VALID,-0.0509425,VALID,19.5823,VALID,23,VALID,0,
2008-10-06, 02:15:00,VALID,917.051,VALID,0,VALID,100,VALID,-0.0339617,VALID,19.5823,VALID,23,VALID,0,
2008-10-06, 02:16:00,VALID,917.04,VALID,0,VALID,100,VALID,-0.0339617,VALID,19.5857,VALID,23,VALID,0,
2008-10-06, 02:17:00,VALID,917.034,VALID,0,VALID,100,VALID,-0.0169808,VALID,19.5728,VALID,23,VALID,0,
2008-10-06, 02:18:00,VALID,917.026,VALID,0,VALID,100,VALID,-0.0509425,VALID,19.5788,VALID,23,VALID,0,
2008-10-06, 02:19:00,VALID,917.033,VALID,0,VALID,100,VALID,-0.0679233,VALID,19.573,VALID,23,VALID,0,
2008-10-06, 02:20:00,VALID,917.026,VALID,0,VALID,100,VALID,-0.0509425,VALID,19.5468,VALID,23,VALID,0,
2008-10-06, 02:21:00,VALID,917.012,VALID,0,VALID,100,VALID,-0.0339617,VALID,19.5538,VALID,23,VALID,0,
2008-10-06, 02:22:00,VALID,917.025,VALID,0,VALID,100,VALID,-0.0679233,VALID,19.5595,VALID,23,VALID,0,
2008-10-06, 02:23:00,VALID,917.006,VALID,0,VALID,100,VALID,-0.0339617,VALID,19.57,VALID,23,VALID,0,
2008-10-06, 02:24:00,VALID,917,VALID,0,VALID,100,VALID,-0.0169808,VALID,19.5595,VALID,23,VALID,0,
2008-10-06, 02:25:00,VALID,916.988,VALID,0,VALID,100,VALID,-0.0339617,VALID,19.5663,VALID,23,VALID,0,
2008-10-06, 02:26:00,VALID,916.97,VALID,0,VALID,100,VALID,-0.0849042,VALID,19.5698,VALID,23,VALID,0,
2008-10-06, 02:27:00,VALID,916.95,VALID,0,VALID,100,VALID,-0.101885,VALID,19.5535,VALID,23,VALID,0,
2008-10-06, 02:28:00,VALID,916.936,VALID,0,VALID,100,VALID,-0.0679233,VALID,19.5633,VALID,23,VALID,0,
2008-10-06, 02:29:00,VALID,916.929,VALID,0,VALID,100,VALID,-0.0509425,VALID,19.563,VALID,23,VALID,0,
2008-10-06, 02:30:00,VALID,916.935,VALID,0,VALID,100,VALID,-0.0679233,VALID,19.5443,VALID,23,VALID,0,
2008-10-06, 02:31:00,VALID,916.936,VALID,0,VALID,100,VALID,-0.0679233,VALID,19.5373,VALID,23,VALID,0,
2008-10-06, 02:32:00,VALID,916.929,VALID,0,VALID,100,VALID,-0.0339617,VALID,19.5114,VALID,23,VALID,0,
2008-10-06, 02:33:00,VALID,916.948,VALID,0,VALID,100,VALID,-0.0339617,VALID,19.5016,VALID,23,VALID,0,
2008-10-06, 02:34:00,VALID,916.954,VALID,0,VALID,100,VALID,-0.101885,VALID,19.4757,VALID,23,VALID,0,
2008-10-06, 02:35:00,VALID,916.958,VALID,0,VALID,100,VALID,-0.0509425,VALID,19.4625,VALID,23,VALID,0,
2008-10-06, 02:36:00,VALID,916.945,VALID,0,VALID,100,VALID,-0.0339617,VALID,19.4689,VALID,23,VALID,0,
2008-10-06, 02:37:00,VALID,916.952,VALID,0,VALID,100,VALID,-0.101885,VALID,19.4689,VALID,23,VALID,0,
2008-10-06, 02:38:00,VALID,916.955,VALID,0,VALID,100,VALID,-0.0339617,VALID,19.4889,VALID,23,VALID,0,
2008-10-06, 02:39:00,VALID,916.966,VALID,0,VALID,100,VALID,-0.0679233,VALID,19.4854,VALID,23,VALID,0,
2008-10-06, 02:40:00,VALID,916.983,VALID,0,VALID,100,VALID,-0.101885,VALID,19.4689,VALID,23,VALID,0,
2008-10-06, 02:41:00,VALID,917.001,VALID,0,VALID,100,VALID,-0.0849042,VALID,19.4727,VALID,23,VALID,0,
2008-10-06, 02:42:00,VALID,917.035,VALID,0,VALID,100,VALID,-0.0679233,VALID,19.4892,VALID,23,VALID,0,
2008-10-06, 02:43:00,VALID,917.078,VALID,0,VALID,100,VALID,-0.101885,VALID,19.4919,VALID,23,VALID,0,
2008-10-06, 02:44:00,VALID,917.108,VALID,0,VALID,100,VALID,-0.0509425,VALID,19.4981,VALID,23,VALID,0,
2008-10-06, 02:45:00,VALID,917.137,VALID,0,VALID,100,VALID,-0.0849042,VALID,19.5149,VALID,23,VALID,0,
2008-10-06, 02:46:00,VALID,917.16,VALID,0,VALID,100,VALID,-0.0849042,VALID,19.5079,VALID,23,VALID,0,
2008-10-06, 02:47:00,VALID,917.181,VALID,0,VALID,100,VALID,-0.118866,VALID,19.5184,VALID,23,VALID,0,
2008-10-06, 02:48:00,VALID,917.198,VALID,0,VALID,100,VALID,-0.101885,VALID,19.5181,VALID,23,VALID,0,
2008-10-06, 02:49:00,VALID,917.216,VALID,0,VALID,100,VALID,-0.0339617,VALID,19.5333,VALID,23,VALID,0,
2008-10-06, 02:50:00,VALID,917.228,VALID,0,VALID,100,VALID,0,VALID,19.5358,VALID,23,VALID,0,
2008-10-06, 02:51:00,VALID,917.244,VALID,0,VALID,100,VALID,0,VALID,19.5491,VALID,23,VALID,0,
2008-10-06, 02:52:00,VALID,917.257,VALID,0,VALID,100,VALID,0.0339617,VALID,19.5488,VALID,23,VALID,0,
2008-10-06, 02:53:00,VALID,917.26,VALID,0,VALID,100,VALID,0.0509425,VALID,19.5583,VALID,23,VALID,0,
2008-10-06, 02:54:00,VALID,917.263,VALID,0,VALID,100,VALID,0.0339617,VALID,19.5653,VALID,23,VALID,0,
2008-10-06, 02:55:00,VALID,917.267,VALID,0,VALID,100,VALID,0.0339617,VALID,19.5713,VALID,23,VALID,0,
2008-10-06, 02:56:00,VALID,917.257,VALID,0,VALID,100,VALID,0.0339617,VALID,19.5778,VALID,23,VALID,0,
2008-10-06, 02:57:00,VALID,917.233,VALID,0,VALID,100,VALID,0.0339617,VALID,19.5845,VALID,23,VALID,0,
2008-10-06, 02:58:00,VALID,917.239,VALID,0,VALID,100,VALID,0.0339617,VALID,19.598,VALID,23,VALID,0,
2008-10-06, 02:59:00,VALID,917.212,VALID,0,VALID,100,VALID,0,VALID,19.5947,VALID,23,VALID,0,
2008-10-06, 03:00:00,VALID,917.202,VALID,0,VALID,100,VALID,0.0169808,VALID,19.5945,VALID,23,VALID,0,
2008-10-06, 03:01:00,VALID,917.183,VALID,0,VALID,100,VALID,0.0509425,VALID,19.5945,VALID,23,VALID,0,
2008-10-06, 03:02:00,VALID,917.179,VALID,0,VALID,100,VALID,0.0339617,VALID,19.5875,VALID,23,VALID,0,
2008-10-06, 03:03:00,VALID,917.184,VALID,0,VALID,100,VALID,0.0169808,VALID,19.5875,VALID,23,VALID,0,
2008-10-06, 03:04:00,VALID,917.187,VALID,0,VALID,100,VALID,-0.0339617,VALID,19.585,VALID,23,VALID,0,
2008-10-06, 03:05:00,VALID,917.182,VALID,0,VALID,100,VALID,-0.0679233,VALID,19.596,VALID,23,VALID,0,
2008-10-06, 03:06:00,VALID,917.174,VALID,0,VALID,100,VALID,-0.0339617,VALID,19.5825,VALID,23,VALID,0,
2008-10-06, 03:07:00,VALID,917.168,VALID,0,VALID,100,VALID,-0.101885,VALID,19.5793,VALID,23,VALID,0,
2008-10-06, 03:08:00,VALID,917.156,VALID,0,VALID,100,VALID,-0.0679233,VALID,19.586,VALID,23,VALID,0,
2008-10-06, 03:09:00,VALID,917.161,VALID,0,VALID,100,VALID,-0.0679233,VALID,19.579,VALID,23,VALID,0,
2008-10-06, 03:10:00,VALID,917.155,VALID,0,VALID,100,VALID,-0.0339617,VALID,19.5663,VALID,23,VALID,0,
2008-10-06, 03:11:00,VALID,917.152,VALID,0,VALID,100,VALID,-0.0679233,VALID,19.5733,VALID,23,VALID,0,
2008-10-06, 03:12:00,VALID,917.157,VALID,0,VALID,100,VALID,-0.0679233,VALID,19.5663,VALID,23,VALID,0,
2008-10-06, 03:13:00,VALID,917.146,VALID,0,VALID,100,VALID,-0.0169808,VALID,19.5561,VALID,23,VALID,0,
2008-10-06, 03:14:00,VALID,917.136,VALID,0,VALID,100,VALID,-0.0679233,VALID,19.563,VALID,23,VALID,0,
2008-10-06, 03:15:00,VALID,917.135,VALID,0,VALID,100,VALID,-0.0849042,VALID,19.5501,VALID,23,VALID,0,
2008-10-06, 03:16:00,VALID,917.136,VALID,0,VALID,100,VALID,-0.0509425,VALID,19.5468,VALID,23,VALID,0,
2008-10-06, 03:17:00,VALID,917.136,VALID,0,VALID,100,VALID,-0.0679233,VALID,19.5338,VALID,23,VALID,0,
2008-10-06, 03:18:00,VALID,917.136,VALID,0,VALID,100,VALID,-0.0679233,VALID,19.5403,VALID,23,VALID,0,
2008-10-06, 03:19:00,VALID,917.134,VALID,0,VALID,100,VALID,-0.0339617,VALID,19.5239,VALID,23,VALID,0,
2008-10-06, 03:20:00,VALID,917.146,VALID,0,VALID,100,VALID,-0.0509425,VALID,19.5338,VALID,23,VALID,0,
2008-10-06, 03:21:00,VALID,917.16,VALID,0,VALID,100,VALID,-0.0169808,VALID,19.5371,VALID,23,VALID,0,
2008-10-06, 03:22:00,VALID,917.178,VALID,0,VALID,100,VALID,-0.0679233,VALID,19.5333,VALID,23,VALID,0,
2008-10-06, 03:23:00,VALID,917.206,VALID,0,VALID,100,VALID,0,VALID,19.5431,VALID,23,VALID,0,
2008-10-06, 03:24:00,VALID,917.221,VALID,0,VALID,100,VALID,-0.0169808,VALID,19.5401,VALID,23,VALID,0,
2008-10-06, 03:25:00,VALID,917.249,VALID,0,VALID,100,VALID,-0.0339617,VALID,19.5468,VALID,27,VALID,0,
2008-10-06, 03:26:00,VALID,917.28,VALID,0,VALID,100,VALID,-0.0509425,VALID,19.5371,VALID,28,VALID,0,
2008-10-06, 03:27:00,VALID,917.297,VALID,0,VALID,100,VALID,-0.0509425,VALID,19.5308,VALID,28,VALID,0,
2008-10-06, 03:28:00,VALID,917.319,VALID,0,VALID,100,VALID,-0.0509425,VALID,19.5176,VALID,28,VALID,0,
2008-10-06, 03:29:00,VALID,917.311,VALID,0,VALID,100,VALID,-0.0169808,VALID,19.5014,VALID,28,VALID,0,
2008-10-06, 03:30:00,VALID,917.322,VALID,0,VALID,100,VALID,-0.101885,VALID,19.4852,VALID,28,VALID,0,
2008-10-06, 03:31:00,VALID,917.314,VALID,0,VALID,100,VALID,-0.0509425,VALID,19.4689,VALID,28,VALID,0,
2008-10-06, 03:32:00,VALID,917.298,VALID,0,VALID,100,VALID,0,VALID,19.4685,VALID,28,VALID,0,
2008-10-06, 03:33:00,VALID,917.289,VALID,0,VALID,100,VALID,-0.0339617,VALID,19.4722,VALID,28,VALID,0,
2008-10-06, 03:34:00,VALID,917.292,VALID,0,VALID,100,VALID,-0.0509425,VALID,19.4657,VALID,28,VALID,0,
2008-10-06, 03:35:00,VALID,917.292,VALID,0,VALID,100,VALID,-0.0679233,VALID,19.4657,VALID,28,VALID,0,
2008-10-06, 03:36:00,VALID,917.296,VALID,0,VALID,100,VALID,-0.0339617,VALID,19.456,VALID,28,VALID,0,
2008-10-06, 03:37:00,VALID,917.289,VALID,0,VALID,100,VALID,-0.0169808,VALID,19.4462,VALID,28,VALID,0,
2008-10-06, 03:38:00,VALID,917.292,VALID,0,VALID,100,VALID,-0.0339617,VALID,19.4462,VALID,28,VALID,0,
2008-10-06, 03:39:00,VALID,917.3,VALID,0,VALID,100,VALID,-0.0509425,VALID,19.4333,VALID,28,VALID,0,
2008-10-06, 03:40:00,VALID,917.292,VALID,0,VALID,100,VALID,-0.0339617,VALID,19.4233,VALID,28,VALID,0,
2008-10-06, 03:41:00,VALID,917.286,VALID,0,VALID,100,VALID,-0.0509425,VALID,19.4173,VALID,28,VALID,0,
2008-10-06, 03:42:00,VALID,917.282,VALID,0,VALID,100,VALID,-0.0679233,VALID,19.4041,VALID,28,VALID,0,
2008-10-06, 03:43:00,VALID,917.27,VALID,0,VALID,100,VALID,-0.0169808,VALID,19.4103,VALID,28,VALID,0,
2008-10-06, 03:44:00,VALID,917.243,VALID,0,VALID,100,VALID,-0.0679233,VALID,19.4168,VALID,28,VALID,0,
2008-10-06, 03:45:00,VALID,917.223,VALID,0,VALID,100,VALID,-0.0339617,VALID,19.4233,VALID,28,VALID,0,
2008-10-06, 03:46:00,VALID,917.221,VALID,0,VALID,100,VALID,-0.0339617,VALID,19.4365,VALID,28,VALID,0,
2008-10-06, 03:47:00,VALID,917.221,VALID,0,VALID,100,VALID,-0.0169808,VALID,19.436,VALID,28,VALID,0,
2008-10-06, 03:48:00,VALID,917.212,VALID,0,VALID,100,VALID,-0.0169808,VALID,19.4328,VALID,28,VALID,0,
2008-10-06, 03:49:00,VALID,917.206,VALID,0,VALID,100,VALID,-0.0169808,VALID,19.4268,VALID,28,VALID,0,
2008-10-06, 03:50:00,VALID,917.203,VALID,0,VALID,100,VALID,-0.0339617,VALID,19.4295,VALID,28,VALID,0,
2008-10-06, 03:51:00,VALID,917.21,VALID,0,VALID,100,VALID,-0.0339617,VALID,19.4395,VALID,28,VALID,0,
2008-10-06, 03:52:00,VALID,917.192,VALID,0,VALID,100,VALID,-0.0339617,VALID,19.4425,VALID,28,VALID,0,